Weather Roundup
Issued by NWS

Home | Current Version | Previous Version | Graphics & Text | Print | Product List | Glossary Off
Versions: 1 2 3 4 5 6 7 8 9 10 11 12 13 14 15 16 17 18 19 20 21 22 23 24 25 26 27 28 29 30 31 32 33 34 35 36 37 38 39 40 41 42 43 44 45 46 47 48 49 50

000
NZUS93 KARX 221910
HRRWXR

CURRENT HOURLY OBSERVATIONS ACROSS
MUCH OF THE UPPER MISSISSIPPI VALLEY
NATIONAL WEATHER SERVICE LA CROSSE WI
200 PM CDT MON MAY 22 2017


...SOUTHEAST MINNESOTA...


CITY           SKY/WX    TMP DP  RH WIND       PRES   REMARKS
ROCHESTER      SUNNY     65  48  54 W10       29.86F
ROCHESTER/MAYO FAIR      65  43  43 W7        29.85F
WINONA         MOSUNNY   70  46  43 W6        29.83F
AUSTIN         SUNNY     66  43  42 NW7       29.84F
ALBERT LEA     SUNNY     66  45  45 N5        29.85F
DODGE CENTER   SUNNY     64  45  48 NW5       29.85F
PRESTON        SUNNY     64  47  55 SW8       29.86F
OWATONNA       SUNNY     64  45  48 SW3       29.85F
FARIBAULT      SUNNY     64  46  52 W8        29.85F
$$

...ELSEWHERE IN MINNESOTA...


CITY           SKY/WX    TMP DP  RH WIND       PRES   REMARKS
MINNEAPOLIS    MOSUNNY   64  42  44 W13G20    29.83F
INTNL FALLS    LGT RAIN  47  43  86 NW8       29.76R FOG
DULUTH         CLOUDY    52  45  77 W10       29.77S
RED WING       SUNNY     66  37  34 W15G21    29.82F
REDWOOD FALLS  SUNNY     64  43  46 NW8       29.85F
MANKATO        SUNNY     62  45  53 N8        29.85
WORTHINGTON    CLOUDY    65  49  56 VRB3      29.85F
FAIRMONT       SUNNY     65  43  44 N6        29.85F
$$

...SOUTHWEST WISCONSIN...


CITY           SKY/WX    TMP DP  RH WIND       PRES   REMARKS
LA CROSSE      SUNNY     70  49  47 S13       29.83F
PRAIRIE DU CHI MOSUNNY   64  53  68 S3        29.87F
BOSCOBEL       SUNNY     65  53  65 SW8       29.88F
LONE ROCK      MOSUNNY   60  51  72 S9        29.89F
PLATTEVILLE    CLOUDY    63  54  71 S10       29.90F
FORT MC COY    SUNNY     67  46  46 W6        29.84F
CAMP DOUGLAS   MOSUNNY   68  46  45 SW9G20    29.83F
MAUSTON-NEW LI CLEAR     66  48  51 S6        29.83F
VIROQUA        FAIR      65  47  51 MISG      29.87S
WIS DELLS      PTSUNNY   62  50  63 SW9G16    29.87F
$$

...ELSEWHERE IN WISCONSIN...


CITY           SKY/WX    TMP DP  RH WIND       PRES   REMARKS
MILWAUKEE      LGT RAIN  65  48  54 W17G23    29.93F
MADISON        LGT RAIN  57  50  77 S9        29.90F
GREEN BAY      PTSUNNY   64  49  57 SW13      29.83F
EAU CLAIRE     MOSUNNY   64  42  44 W13G21    29.81F
BLACK RVR FLS  FAIR      67  43  40 SW9       29.82F
MEDFORD        CLOUDY    58  42  56 SW15G25   29.81S
WAUSAU         PTSUNNY   60  42  51 SW15G23   29.80S
WIS RAPIDS     MOSUNNY   68  44  42 W14G31    29.82F
MARSHFIELD     PTSUNNY   63  42  46 SW12      29.80F
RICE LAKE      CLOUDY    57  42  58 W14G20    29.84R
$$

...NORTHEAST IOWA...


CITY           SKY/WX    TMP DP  RH WIND       PRES   REMARKS
WATERLOO       PTSUNNY   69  52  54 W13       29.85F
DUBUQUE        PTSUNNY   63  52  67 S9        29.90F
DECORAH        PTSUNNY   64  50  59 SW9G15    29.86F
MASON CITY     MOSUNNY   65  50  58 CALM      29.86F
CHARLES CITY   MOSUNNY   66  54  63 S8        29.86F
OELWEIN        MOSUNNY   66  55  68 SW12      29.87F
$$

...ELSEWHERE IN IOWA...


CITY           SKY/WX    TMP DP  RH WIND       PRES   REMARKS
DES MOINES     CLOUDY    72  53  51 SW16      29.89F
IOWA CITY      PTSUNNY   72  55  55 SW18G29   29.91F
FORT DODGE     PTSUNNY   68  52  56 W7        29.85F
MARSHALLTOWN   CLOUDY    70  54  56 SW17G24   29.86F
CEDAR RAPIDS   CLOUDY    68  56  65 SW15G23   29.87F
$$

...NORTHERN ILLINOIS...


CITY           SKY/WX    TMP DP  RH WIND       PRES   REMARKS
CHICAGO-OHARE  MOSUNNY   71  46  40 SW15G24   29.95F
CHICAGO-MIDWAY MOSUNNY   72  47  40 SW18G29   29.96F
MOLINE         LGT RAIN  67  52  58 SW20G29   29.93S
ROCKFORD       CLOUDY    69  49  48 W7G18     29.94F
PEORIA         MOSUNNY   73  47  39 SW16      29.97F
$$

NOTE: "FAIR" INDICATES FEW OR NO CLOUDS BELOW 12,000 FEET WITH NO
SIGNIFICANT WEATHER AND/OR OBSTRUCTIONS TO VISIBILITY. WIND
SPEEDS ARE IN MILES-PER-HOUR.




USA.gov is the U.S. government's official web portal to all federal, state and local government web resources and services.